| time (UTC) | temp C | wind direction | speed KPH | gust KPH | rain 1hr cm | rain 24hr cm | rain mn cm | humidity % | barometer mb |
| 20260504004503 | 14 | 201 | 3.2 | 9.7 | 0.00 | 0.00 | 0.00 | 51 | 1013.6 |
| 20260504004003 | 14 | 200 | 3.2 | 9.7 | 0.00 | 0.00 | 0.00 | 50 | 1013.6 |
| 20260504003503 | 14 | 193 | 3.2 | 9.7 | 0.00 | 0.00 | 0.00 | 50 | 1013.6 |
| 20260504003003 | 15 | 191 | 3.2 | 8.0 | 0.00 | 0.00 | 0.00 | 49 | 1013.5 |
| 20260504002503 | 15 | 196 | 3.2 | 8.0 | 0.00 | 0.00 | 0.00 | 48 | 1013.5 |
| 20260504002003 | 15 | 195 | 3.2 | 11.3 | 0.00 | 0.00 | 0.00 | 47 | 1013.6 |
| 20260504001503 | 15 | 200 | 3.2 | 11.3 | 0.00 | 0.00 | 0.00 | 47 | 1013.6 |
| 20260504001003 | 15 | 212 | 3.2 | 11.3 | 0.00 | 0.00 | 0.00 | 47 | 1013.7 |
| 20260504000503 | 15 | 208 | 3.2 | 9.7 | 0.00 | 0.00 | 0.00 | 47 | 1013.8 |
| 20260504000003 | 15 | 203 | 3.2 | 8.0 | 0.00 | 0.00 | 0.00 | 46 | 1013.9 |
| 20260503235524 | 15 | 203 | 3.2 | 9.7 | 0.00 | 0.00 | 0.00 | 47 | 1013.8 |
| 20260503235003 | 16 | 200 | 1.6 | 9.7 | 0.00 | 0.00 | 0.00 | 45 | 1013.7 |
| 20260503234503 | 16 | 202 | 1.6 | 9.7 | 0.00 | 0.00 | 0.00 | 46 | 1013.9 |
| 20260503234024 | 16 | 206 | 1.6 | 9.7 | 0.00 | 0.00 | 0.00 | 45 | 1014.1 |
| 20260503233503 | 16 | 222 | 3.2 | 8.0 | 0.00 | 0.00 | 0.00 | 46 | 1014.1 |
| 20260503233003 | 16 | 226 | 3.2 | 8.0 | 0.00 | 0.00 | 0.00 | 43 | 1014.1 |
| 20260503232503 | 16 | 223 | 3.2 | 8.0 | 0.00 | 0.00 | 0.00 | 43 | 1014.1 |
| 20260503232024 | 16 | 231 | 4.8 | 11.3 | 0.00 | 0.00 | 0.00 | 44 | 1014.3 |
| 20260503231503 | 16 | 236 | 6.4 | 14.5 | 0.00 | 0.00 | 0.00 | 41 | 1014.4 |
| 20260503231003 | 16 | 236 | 6.4 | 16.1 | 0.00 | 0.00 | 0.00 | 42 | 1014.5 |
| 20260503230524 | 16 | 238 | 6.4 | 16.1 | 0.00 | 0.00 | 0.00 | 41 | 1014.5 |
| 20260503230003 | 16 | 230 | 6.4 | 14.5 | 0.00 | 0.00 | 0.00 | 40 | 1014.5 |
| 20260503225503 | 17 | 212 | 4.8 | 12.9 | 0.00 | 0.00 | 0.00 | 39 | 1014.7 |
| 20260503225003 | 17 | 212 | 3.2 | 12.9 | 0.00 | 0.00 | 0.00 | 42 | 1014.5 |
| 20260503224503 | 17 | 212 | 4.8 | 12.9 | 0.00 | 0.00 | 0.00 | 43 | 1014.6 |
| 20260503224003 | 17 | 223 | 6.4 | 16.1 | 0.00 | 0.00 | 0.00 | 41 | 1014.8 |
| 20260503223503 | 17 | 233 | 6.4 | 16.1 | 0.00 | 0.00 | 0.00 | 40 | 1015.0 |
| 20260503223003 | 17 | 232 | 4.8 | 14.5 | 0.00 | 0.00 | 0.00 | 42 | 1015.0 |
| 20260503222524 | 17 | 230 | 4.8 | 11.3 | 0.00 | 0.00 | 0.00 | 40 | 1015.1 |
| 20260503222024 | 16 | 234 | 6.4 | 17.7 | 0.00 | 0.00 | 0.00 | 40 | 1015.0 |
| 20260503221503 | 17 | 227 | 8.0 | 20.9 | 0.00 | 0.00 | 0.00 | 37 | 1015.0 |
| 20260503221003 | 17 | 225 | 8.0 | 20.9 | 0.00 | 0.00 | 0.00 | 36 | 1015.1 |
| 20260503220503 | 17 | 229 | 6.4 | 17.7 | 0.00 | 0.00 | 0.00 | 38 | 1015.2 |
| 20260503220003 | 17 | 226 | 8.0 | 22.5 | 0.00 | 0.00 | 0.00 | 38 | 1015.3 |
| 20260503215503 | 17 | 224 | 8.0 | 22.5 | 0.00 | 0.00 | 0.00 | 39 | 1015.2 |
| 20260503215003 | 17 | 220 | 8.0 | 16.1 | 0.00 | 0.00 | 0.00 | 37 | 1015.3 |
| 20260503214503 | 17 | 222 | 8.0 | 20.9 | 0.00 | 0.00 | 0.00 | 38 | 1015.3 |
| 20260503214003 | 17 | 226 | 8.0 | 20.9 | 0.00 | 0.00 | 0.00 | 35 | 1015.1 |
| 20260503213524 | 17 | 230 | 6.4 | 19.3 | 0.00 | 0.00 | 0.00 | 37 | 1015.1 |
| 20260503213003 | 17 | 230 | 8.0 | 24.1 | 0.00 | 0.00 | 0.00 | 35 | 1015.1 |
| 20260503212503 | 17 | 225 | 9.7 | 22.5 | 0.00 | 0.00 | 0.00 | 36 | 1015.5 |
| 20260503212003 | 17 | 230 | 9.7 | 22.5 | 0.00 | 0.00 | 0.00 | 35 | 1015.3 |
| 20260503211503 | 17 | 227 | 8.0 | 22.5 | 0.00 | 0.00 | 0.00 | 34 | 1015.5 |
| 20260503211024 | 17 | 210 | 6.4 | 17.7 | 0.00 | 0.00 | 0.00 | 39 | 1015.5 |
| 20260503210503 | 17 | 209 | 8.0 | 24.1 | 0.00 | 0.00 | 0.00 | 38 | 1015.3 |
| 20260503210003 | 17 | 204 | 8.0 | 24.1 | 0.00 | 0.00 | 0.00 | 36 | 1015.4 |
| 20260503205503 | 17 | 211 | 8.0 | 24.1 | 0.00 | 0.00 | 0.00 | 37 | 1015.6 |
| 20260503205003 | 17 | 224 | 9.7 | 24.1 | 0.00 | 0.00 | 0.00 | 38 | 1015.5 |
| 20260503204503 | 17 | 217 | 8.0 | 22.5 | 0.00 | 0.00 | 0.00 | 39 | 1015.5 |
| 20260503204003 | 17 | 203 | 8.0 | 22.5 | 0.00 | 0.00 | 0.00 | 39 | 1015.7 |
| 20260503203503 | 17 | 193 | 8.0 | 22.5 | 0.00 | 0.00 | 0.00 | 38 | 1015.8 |
| 20260503203024 | 17 | 209 | 8.0 | 22.5 | 0.00 | 0.00 | 0.00 | 40 | 1016.0 |
| 20260503202503 | 17 | 228 | 6.4 | 19.3 | 0.00 | 0.00 | 0.00 | 41 | 1016.3 |
| 20260503202003 | 17 | 203 | 6.4 | 19.3 | 0.00 | 0.00 | 0.00 | 39 | 1016.4 |
| 20260503201503 | 17 | 198 | 6.4 | 19.3 | 0.00 | 0.00 | 0.00 | 41 | 1016.5 |
| 20260503201003 | 17 | 218 | 6.4 | 25.7 | 0.00 | 0.00 | 0.00 | 42 | 1016.7 |
| 20260503200503 | 17 | 226 | 6.4 | 25.7 | 0.00 | 0.00 | 0.00 | 41 | 1016.8 |
| 20260503200003 | 17 | 230 | 6.4 | 22.5 | 0.00 | 0.00 | 0.00 | 40 | 1016.9 |
| 20260503195503 | 17 | 236 | 6.4 | 24.1 | 0.00 | 0.00 | 0.00 | 37 | 1017.0 |
| 20260503195024 | 17 | 231 | 6.4 | 24.1 | 0.00 | 0.00 | 0.00 | 38 | 1017.0 |
| 20260503194503 | 17 | 216 | 8.0 | 20.9 | 0.00 | 0.00 | 0.00 | 45 | 1017.2 |
| 20260503194003 | 17 | 223 | 8.0 | 24.1 | 0.00 | 0.00 | 0.00 | 40 | 1017.1 |
| 20260503193503 | 17 | 235 | 8.0 | 24.1 | 0.00 | 0.00 | 0.00 | 40 | 1017.2 |
| 20260503193003 | 16 | 223 | 8.0 | 24.1 | 0.00 | 0.00 | 0.00 | 37 | 1017.3 |
| 20260503192503 | 17 | 208 | 8.0 | 24.1 | 0.00 | 0.00 | 0.00 | 40 | 1017.3 |
| 20260503192003 | 16 | 209 | 6.4 | 20.9 | 0.00 | 0.00 | 0.00 | 39 | 1017.4 |
| 20260503191503 | 17 | 210 | 6.4 | 20.9 | 0.00 | 0.00 | 0.00 | 39 | 1017.6 |
| 20260503191003 | 16 | 200 | 6.4 | 16.1 | 0.00 | 0.00 | 0.00 | 46 | 1017.6 |
| 20260503190524 | 16 | 198 | 8.0 | 16.1 | 0.00 | 0.00 | 0.00 | 38 | 1017.7 |
| 20260503190003 | 16 | 207 | 8.0 | 19.3 | 0.00 | 0.00 | 0.00 | 41 | 1017.8 |
| 20260503185503 | 16 | 221 | 6.4 | 19.3 | 0.00 | 0.00 | 0.00 | 42 | 1017.8 |
| 20260503185003 | 16 | 225 | 6.4 | 24.1 | 0.00 | 0.00 | 0.00 | 45 | 1017.8 |
| 20260503184503 | 16 | 221 | 8.0 | 24.1 | 0.00 | 0.00 | 0.00 | 39 | 1017.9 |
| 20260503184024 | 16 | 224 | 6.4 | 16.1 | 0.00 | 0.00 | 0.00 | 43 | 1017.9 |
| 20260503183524 | 16 | 230 | 8.0 | 27.4 | 0.00 | 0.00 | 0.00 | 42 | 1018.0 |
| 20260503183003 | 16 | 218 | 9.7 | 27.4 | 0.00 | 0.00 | 0.00 | 40 | 1018.0 |
| 20260503182503 | 16 | 203 | 8.0 | 19.3 | 0.00 | 0.00 | 0.00 | 39 | 1018.1 |
| 20260503182024 | 16 | 213 | 8.0 | 17.7 | 0.00 | 0.00 | 0.00 | 42 | 1018.2 |
| 20260503181504 | 16 | 216 | 6.4 | 19.3 | 0.00 | 0.00 | 0.00 | 40 | 1018.2 |
| 20260503181003 | 16 | 201 | 6.4 | 19.3 | 0.00 | 0.00 | 0.00 | 45 | 1018.4 |
| 20260503180503 | 16 | 201 | 6.4 | 17.7 | 0.00 | 0.00 | 0.00 | 43 | 1018.5 |
| 20260503180003 | 15 | 215 | 4.8 | 17.7 | 0.00 | 0.00 | 0.00 | 40 | 1018.6 |
| 20260503175503 | 15 | 205 | 4.8 | 14.5 | 0.00 | 0.00 | 0.00 | 42 | 1018.6 |
| 20260503175003 | 15 | 185 | 4.8 | 12.9 | 0.00 | 0.00 | 0.00 | 42 | 1018.6 |
| 20260503174503 | 15 | 190 | 4.8 | 14.5 | 0.00 | 0.00 | 0.00 | 44 | 1018.8 |
| 20260503174003 | 15 | 209 | 6.4 | 19.3 | 0.00 | 0.00 | 0.00 | 39 | 1018.8 |
| 20260503173503 | 15 | 214 | 6.4 | 19.3 | 0.00 | 0.00 | 0.00 | 38 | 1019.0 |
| 20260503173003 | 15 | 195 | 6.4 | 19.3 | 0.00 | 0.00 | 0.00 | 42 | 1019.0 |
| 20260503172503 | 15 | 203 | 6.4 | 19.3 | 0.00 | 0.00 | 0.00 | 41 | 1019.2 |
| 20260503172003 | 15 | 208 | 6.4 | 19.3 | 0.00 | 0.00 | 0.00 | 41 | 1019.3 |
| 20260503171503 | 15 | 207 | 4.8 | 17.7 | 0.00 | 0.00 | 0.00 | 44 | 1019.3 |
| 20260503171024 | 15 | 194 | 6.4 | 12.9 | 0.00 | 0.00 | 0.00 | 42 | 1019.4 |
| 20260503170503 | 15 | 187 | 4.8 | 12.9 | 0.00 | 0.00 | 0.00 | 38 | 1019.6 |
| 20260503150503 | 13 | 199 | 3.2 | 17.7 | 0.00 | 0.00 | 0.00 | 48 | 1020.5 |
| 20260503131003 | 8 | 220 | 4.8 | 12.9 | 0.00 | 0.00 | 0.00 | 68 | 1020.5 |
| 20260503130503 | 8 | 209 | 3.2 | 9.7 | 0.00 | 0.00 | 0.00 | 71 | 1020.5 |
| 20260503110524 | -1 | 160 | 0.0 | 1.6 | 0.00 | 0.00 | 0.00 | 95 | 1019.8 |
| 20260503090503 | -1 | 0 | 0.0 | 0.0 | 0.00 | 0.00 | 0.00 | 93 | 1019.2 |
| 20260503081503 | 0 | 0 | 0.0 | 0.0 | 0.00 | 0.00 | 0.00 | 92 | 1018.9 |
| 20260503081003 | 0 | 0 | 0.0 | 0.0 | 0.00 | 0.00 | 0.00 | 92 | 1018.9 |
| 20260503080524 | 0 | 0 | 0.0 | 0.0 | 0.00 | 0.00 | 0.00 | 92 | 1018.9 |
| 20260503072524 | 0 | 0 | 0.0 | 0.0 | 0.00 | 0.00 | 0.00 | 92 | 1018.8 |
| 20260503072003 | 0 | 0 | 0.0 | 0.0 | 0.00 | 0.00 | 0.00 | 91 | 1018.8 |
| 20260503071524 | 0 | 0 | 0.0 | 0.0 | 0.00 | 0.00 | 0.00 | 91 | 1018.8 |
| 20260503071003 | 0 | 0 | 0.0 | 0.0 | 0.00 | 0.00 | 0.00 | 91 | 1018.8 |
| 20260503070503 | 0 | 0 | 0.0 | 0.0 | 0.00 | 0.00 | 0.00 | 91 | 1018.8 |
| 20260503055003 | 2 | 0 | 0.0 | 0.0 | 0.00 | 0.00 | 0.00 | 86 | 1019.0 |
| 20260503054503 | 2 | 0 | 0.0 | 0.0 | 0.00 | 0.00 | 0.00 | 85 | 1019.0 |
| 20260503054024 | 2 | 0 | 0.0 | 0.0 | 0.00 | 0.00 | 0.00 | 84 | 1019.0 |
| 20260503053503 | 2 | 0 | 0.0 | 0.0 | 0.00 | 0.00 | 0.00 | 83 | 1018.9 |
| 20260503053003 | 3 | 351 | 0.0 | 1.6 | 0.00 | 0.00 | 0.00 | 83 | 1019.0 |
| 20260503052503 | 3 | 351 | 0.0 | 1.6 | 0.00 | 0.00 | 0.00 | 81 | 1019.0 |
| 20260503052003 | 3 | 0 | 0.0 | 0.0 | 0.00 | 0.00 | 0.00 | 81 | 1019.0 |
| 20260503051503 | 3 | 351 | 0.0 | 1.6 | 0.00 | 0.00 | 0.00 | 80 | 1019.1 |
| 20260503051003 | 3 | 351 | 0.0 | 1.6 | 0.00 | 0.00 | 0.00 | 81 | 1019.1 |
| 20260503050503 | 3 | 351 | 0.0 | 1.6 | 0.00 | 0.00 | 0.00 | 79 | 1019.1 |
| 20260503050003 | 4 | 351 | 0.0 | 1.6 | 0.00 | 0.00 | 0.00 | 78 | 1019.1 |
| 20260503045503 | 4 | 351 | 0.0 | 1.6 | 0.00 | 0.00 | 0.00 | 75 | 1019.1 |
| 20260503045024 | 5 | 351 | 0.0 | 1.6 | 0.00 | 0.00 | 0.00 | 74 | 1019.1 |
| 20260503044503 | 5 | 351 | 0.0 | 3.2 | 0.00 | 0.00 | 0.00 | 73 | 1019.1 |
| 20260503044003 | 5 | 351 | 1.6 | 4.8 | 0.00 | 0.00 | 0.00 | 72 | 1019.1 |
| 20260503043503 | 5 | 352 | 1.6 | 4.8 | 0.00 | 0.00 | 0.00 | 69 | 1019.1 |
| 20260503043003 | 5 | 358 | 1.6 | 4.8 | 0.00 | 0.00 | 0.00 | 68 | 1019.1 |
| 20260503042503 | 5 | 6 | 3.2 | 4.8 | 0.00 | 0.00 | 0.00 | 68 | 1019.0 |
| 20260503042003 | 6 | 12 | 3.2 | 4.8 | 0.00 | 0.00 | 0.00 | 67 | 1019.0 |
| 20260503041503 | 6 | 16 | 3.2 | 4.8 | 0.00 | 0.00 | 0.00 | 67 | 1019.0 |
| 20260503041003 | 6 | 19 | 3.2 | 6.4 | 0.00 | 0.00 | 0.00 | 67 | 1018.9 |
| 20260503040503 | 6 | 18 | 3.2 | 6.4 | 0.00 | 0.00 | 0.00 | 67 | 1018.9 |
| 20260503040003 | 6 | 15 | 3.2 | 8.0 | 0.00 | 0.00 | 0.00 | 67 | 1018.9 |
| 20260503035503 | 6 | 9 | 3.2 | 8.0 | 0.00 | 0.00 | 0.00 | 67 | 1018.9 |
| 20260503035003 | 6 | 2 | 3.2 | 6.4 | 0.00 | 0.00 | 0.00 | 67 | 1018.9 |
| 20260503034524 | 6 | 4 | 3.2 | 8.0 | 0.00 | 0.00 | 0.00 | 67 | 1018.9 |
| 20260503034003 | 6 | 357 | 4.8 | 9.7 | 0.00 | 0.00 | 0.00 | 68 | 1018.8 |
| 20260503033503 | 6 | 347 | 4.8 | 11.3 | 0.00 | 0.00 | 0.00 | 72 | 1018.8 |
| 20260503033003 | 6 | 345 | 4.8 | 11.3 | 0.00 | 0.00 | 0.00 | 71 | 1018.8 |
| 20260503032503 | 5 | 340 | 4.8 | 8.0 | 0.00 | 0.00 | 0.00 | 72 | 1018.7 |
| 20260503032003 | 5 | 339 | 4.8 | 8.0 | 0.00 | 0.00 | 0.00 | 74 | 1018.7 |
| 20260503031503 | 5 | 338 | 4.8 | 8.0 | 0.00 | 0.00 | 0.00 | 75 | 1018.8 |
| 20260503031003 | 5 | 332 | 3.2 | 8.0 | 0.00 | 0.00 | 0.00 | 74 | 1018.7 |
| 20260503030503 | 5 | 330 | 3.2 | 8.0 | 0.00 | 0.00 | 0.00 | 76 | 1018.7 |
| 20260503030003 | 5 | 333 | 3.2 | 8.0 | 0.00 | 0.00 | 0.00 | 77 | 1018.7 |
| 20260503025503 | 4 | 336 | 3.2 | 6.4 | 0.00 | 0.00 | 0.00 | 78 | 1018.6 |
| 20260503025003 | 4 | 337 | 3.2 | 4.8 | 0.00 | 0.00 | 0.00 | 80 | 1018.6 |
| 20260503024524 | 4 | 332 | 1.6 | 6.4 | 0.00 | 0.00 | 0.00 | 82 | 1018.4 |
| 20260503024003 | 5 | 325 | 1.6 | 6.4 | 0.00 | 0.00 | 0.00 | 83 | 1018.4 |
| 20260503023503 | 5 | 327 | 1.6 | 4.8 | 0.00 | 0.00 | 0.00 | 83 | 1018.3 |
| 20260503023003 | 5 | 331 | 3.2 | 4.8 | 0.00 | 0.00 | 0.00 | 83 | 1018.3 |
| 20260503022524 | 5 | 334 | 3.2 | 4.8 | 0.00 | 0.00 | 0.00 | 83 | 1018.2 |
| 20260503022003 | 5 | 331 | 1.6 | 4.8 | 0.00 | 0.00 | 0.00 | 84 | 1018.2 |
| 20260503021503 | 5 | 323 | 1.6 | 4.8 | 0.00 | 0.00 | 0.00 | 84 | 1018.1 |
| 20260503021003 | 5 | 317 | 0.0 | 4.8 | 0.00 | 0.00 | 0.00 | 84 | 1018.0 |
| 20260503020524 | 6 | 303 | 0.0 | 1.6 | 0.00 | 0.00 | 0.00 | 84 | 1017.9 |
| 20260503020003 | 6 | 305 | 0.0 | 1.6 | 0.00 | 0.00 | 0.00 | 84 | 1017.9 |
| 20260503015503 | 6 | 303 | 1.6 | 3.2 | 0.00 | 0.00 | 0.00 | 82 | 1017.8 |
| 20260503015025 | 6 | 302 | 0.0 | 3.2 | 0.00 | 0.00 | 0.00 | 82 | 1017.7 |
| 20260503014503 | 6 | 300 | 0.0 | 1.6 | 0.00 | 0.00 | 0.00 | 80 | 1017.7 |
| 20260503014003 | 6 | 0 | 0.0 | 0.0 | 0.00 | 0.00 | 0.00 | 80 | 1017.6 |
| 20260503013503 | 7 | 300 | 0.0 | 1.6 | 0.00 | 0.00 | 0.00 | 80 | 1017.5 |
| 20260503013003 | 7 | 300 | 0.0 | 1.6 | 0.00 | 0.00 | 0.00 | 80 | 1017.4 |
| 20260503012503 | 7 | 301 | 0.0 | 1.6 | 0.00 | 0.00 | 0.00 | 78 | 1017.4 |
| 20260503012003 | 7 | 300 | 0.0 | 3.2 | 0.00 | 0.00 | 0.00 | 77 | 1017.4 |
| 20260503011503 | 7 | 300 | 0.0 | 3.2 | 0.00 | 0.00 | 0.00 | 78 | 1017.3 |
| 20260503011003 | 7 | 301 | 0.0 | 3.2 | 0.00 | 0.00 | 0.00 | 79 | 1017.2 |
| 20260503010524 | 7 | 300 | 0.0 | 3.2 | 0.00 | 0.00 | 0.00 | 78 | 1017.1 |
| 20260503010024 | 7 | 299 | 0.0 | 3.2 | 0.00 | 0.00 | 0.00 | 76 | 1017.1 |
| 20260503005503 | 7 | 301 | 0.0 | 3.2 | 0.00 | 0.00 | 0.00 | 75 | 1017.1 |
| 20260503005003 | 8 | 301 | 0.0 | 3.2 | 0.00 | 0.00 | 0.00 | 73 | 1017.0 |